Location: *
(51.1248°S, 108.4023°W)
Time: 09:33:05
(UTC+00:00)

Envisat - Pass Details

Date: 02 October 2021
Orbit: 764 x 766 km, 98.2° (Epoch: 27 October)

Event Time Altitude Azimuth Distance (km) Brightness Sun altitude
Rises 02:03:12 0° 174° (S) 3,279 6.4 -6.5°
Reaches altitude 10° 02:05:59 10° 189° (S) 2,346 5.8 -6.9°
Maximum altitude 02:09:52 22° 237° (WSW) 1,653 5.8 -7.5°
Drops below altitude 10° 02:13:44 10° 287° (WNW) 2,327 6.5 -8.1°
Sets 02:16:29 0° 301° (WNW) 3,246 6.9 -8.5°
